Minneapolis Flying Cloud, MN

4:58 AM CST on December 13, 2019 (GMT -0600)
Flying Cloud

Weather History for KFCM - August, 2019

Change the Weather History Date:

Saturday, August 10, 2019

  Actual Average Record
Temperature  
Mean Temperature 68 °F -  
Max Temperature 72 °F 79 °F 93 °F (2007)
Min Temperature 64 °F 58 °F 52 °F (2004)
Cooling Degree Days 3    
Growing Degree Days 18 (Base 50)    
Moisture  
Dew Point 61 °F    
Average Humidity 81    
Maximum Humidity 93    
Minimum Humidity 61    
Precipitation  
Precipitation 0.53 in - - ()
Sea Level Pressure  
Sea Level Pressure 29.95 in    
Wind  
Wind Speed 6 mph (ESE)    
Max Wind Speed 12 mph    
Max Gust Speed -    
Visibility 8 miles    
Events Rain , Thunderstorm    
Averages and records for this station are not official NWS values.
T = Trace of Precipitation, MM = Missing Value Source: NWS Daily Summary

Daily Weather History Graph

Daily Weather History Graph

Search for Another Location

Airport or City:

Astronomy

Aug. 10, 2019 Rise Set
Actual Time 6:09 AM CDT 8:27 PM CDT
Civil Twilight 5:37 AM CDT 9:00 PM CDT
Nautical Twilight 4:57 AM CDT 9:40 PM CDT
Astronomical Twilight 4:11 AM CDT 10:25 PM CDT
Moon 5:16 PM CDT (8/10) 1:43 AM CDT (8/10)
Length of Visible Light 15h 22m
Length of Day
14h 17m
Waxing Gibbous, 79% of the Moon is Illuminated
Aug 10
Waxing Gibbous
Aug 15
Full
Aug 23
Last Quarter
Aug 30
New
Sep 5
First Quarter

Hourly Weather History & Observations

Time (CDT) Temp. Dew Point Humidity Pressure Visibility Wind Dir Wind Speed Gust Speed Precip Events Conditions
12:53 AM 70.0 °F 59.0 °F 68% 29.96 in 10.0 mi SSE 3.5 mph - N/A   Overcast
1:53 AM 69.1 °F 61.0 °F 75% 29.96 in 10.0 mi Calm Calm - N/A   Overcast
2:53 AM 66.9 °F 60.1 °F 79% 29.96 in 10.0 mi WSW 3.5 mph - 0.00 in   Overcast
3:53 AM 66.9 °F 60.1 °F 79% 29.95 in 10.0 mi SSE 4.6 mph - 0.00 in   Overcast
4:53 AM 66.9 °F 61.0 °F 81% 29.96 in 10.0 mi Calm Calm - 0.00 in   Overcast
5:53 AM 66.9 °F 60.1 °F 79% 29.96 in 10.0 mi SE 4.6 mph - 0.00 in   Overcast
6:53 AM 66.9 °F 59.0 °F 76% 29.97 in 10.0 mi ESE 4.6 mph - N/A   Overcast
7:53 AM 66.0 °F 61.0 °F 84% 29.99 in 8.0 mi SSW 5.8 mph - 0.03 in Rain Light Rain
8:02 AM 64.9 °F 60.1 °F 84% 29.99 in 1.8 mi South 6.9 mph - 0.04 in Rain Rain
8:06 AM 64.9 °F 60.1 °F 84% 30.00 in 4.0 mi SSW 6.9 mph - 0.05 in Rain Rain
8:53 AM 66.0 °F 61.0 °F 84% 29.98 in 10.0 mi South 8.1 mph - 0.07 in   Overcast
9:53 AM 66.9 °F 61.0 °F 81% 29.99 in 10.0 mi South 8.1 mph - 0.00 in Rain Light Rain
10:53 AM 68.0 °F 60.1 °F 76% 29.99 in 10.0 mi SSE 10.4 mph - 0.00 in   Overcast
11:53 AM 70.0 °F 57.9 °F 65% 29.96 in 10.0 mi SE 10.4 mph - N/A   Overcast
12:53 PM 72.0 °F 57.9 °F 61% 29.95 in 10.0 mi ESE 10.4 mph - N/A   Overcast
1:37 PM 71.1 °F 57.9 °F 63% 29.95 in 10.0 mi ESE 9.2 mph - 0.00 in Rain , Thunderstorm Light Rain
1:53 PM 70.0 °F 59.0 °F 68% 29.94 in 10.0 mi East 6.9 mph - 0.00 in Rain Light Rain
2:02 PM 70.0 °F 59.0 °F 68% 29.96 in 10.0 mi East 4.6 mph - 0.00 in Thunderstorm Overcast
2:17 PM 71.1 °F 60.1 °F 68% 29.96 in 10.0 mi Calm Calm - 0.00 in   Overcast
2:53 PM 66.9 °F 62.1 °F 84% 29.96 in 2.0 mi South 9.2 mph - 0.06 in Rain Rain
2:57 PM 66.0 °F 62.1 °F 87% 29.96 in 0.8 mi SSE 10.4 mph - 0.11 in Rain Heavy Rain
3:12 PM 66.0 °F 63.0 °F 90% 29.95 in 2.0 mi East 5.8 mph - 0.23 in Rain , Thunderstorm Rain
3:20 PM 66.0 °F 63.0 °F 90% 29.95 in 7.0 mi East 10.4 mph - 0.23 in Rain , Thunderstorm Light Rain
3:43 PM 66.9 °F 63.0 °F 87% 29.94 in 10.0 mi ENE 9.2 mph - 0.23 in   Overcast
3:53 PM 66.9 °F 63.0 °F 87% 29.93 in 10.0 mi East 9.2 mph - 0.23 in   Overcast
4:53 PM 68.0 °F 63.0 °F 84% 29.93 in 10.0 mi NE 6.9 mph - N/A   Overcast
5:20 PM 68.0 °F 63.0 °F 84% 29.93 in 10.0 mi ENE 6.9 mph - N/A   Overcast
5:53 PM 68.0 °F 62.1 °F 81% 29.92 in 10.0 mi ENE 8.1 mph - N/A   Overcast
6:53 PM 66.9 °F 63.0 °F 87% 29.91 in 3.0 mi NE 8.1 mph - 0.06 in Rain Light Rain
6:56 PM 66.0 °F 63.0 °F 90% 29.92 in 1.8 mi ENE 11.5 mph - 0.06 in Rain Rain
7:06 PM 66.0 °F 63.0 °F 90% 29.91 in 3.0 mi ENE 9.2 mph - 0.07 in Rain Light Rain
7:53 PM 66.0 °F 64.0 °F 93% 29.91 in 10.0 mi East 8.1 mph - 0.08 in   Overcast
8:53 PM 66.0 °F 63.0 °F 90% 29.90 in 10.0 mi East 9.2 mph - N/A   Overcast
9:53 PM 66.0 °F 63.0 °F 90% 29.91 in 10.0 mi East 8.1 mph - N/A   Overcast
10:53 PM 66.0 °F 64.0 °F 93% 29.92 in 10.0 mi East 6.9 mph - N/A   Overcast
11:17 PM 66.0 °F 63.0 °F 90% 29.93 in 10.0 mi ENE 6.9 mph - N/A   Overcast
11:53 PM 66.0 °F 63.0 °F 90% 29.93 in 10.0 mi East 6.9 mph - N/A   Overcast